THOR ABLESTAR DEB, 210

Orbit data source: Space-Track

THOR ABLESTAR DEB, 210 is space debris in LEO originally from a launch on Thu, 29 Jun 1961 UTC launched from the Air Force Eastern Test Range (AFETR). Debris objects in space refer to the collection of defunct objects orbiting the Earth. Examples of debris include non-operational satellites, rocket bodies, and fragments generated from explosions, collisions, or faulty payload assembly.

Loading next visibility...
Identifier
210, 1961-015BE
Orbit
LEO
Last TLE update
9 hours ago
Origin
Manufacturer
Unknown
Mission
Spacecraft
Bus & Motor
Unknown
Mass
Unknown
Launch date (UTC)
1961-06-29 (64 years ago)
Launch vehicle
Unknown
Launch site
Air Force Eastern Test Range (AFETR)
Object type
Payload
Rocket body
Debris
Shape & HBR
Unknown
Radar Cross Section
Medium (>0.1 m² and <1 m²)

Expand to show TLE details & history

TLE from 9 hours ago
0 THOR ABLESTAR DEB
1 00210U 61015BE  25188.91957351  .00000384  00000-0  38119-3 0  9990
2 00210  66.4566 134.9873 0045658 182.4549 177.6309 13.88595703217590
Epoch: 2025-07-07T22:04Z
TLE epoch observation values (Epoch: 2025-07-07T22:04:11.151Z)
Latitude
-0.00001°
Longitude
-122.18117°
Altitude
968.963 km
Speed
7.351 km/s
True Right ascension
08h 59m 56s
True Declination
0° 00' 00"
Sunlit
Object was in daylight at epoch
Visualization orbit readout
Latitude
12.88712°
Longitude
-117.38463°
Altitude
967.518 km
Speed
7.353 km/s
Apparent Right ascension
08h 19m 57s
Apparent Declination
-12° 01' 10"
Sunlit
Object is in daylight
Visualization observer readout
Local Sidereal Time
18:52:16
Azimuth
319.166° NNW
Elevation
-56.053°
Doppler factor
1
Orbital elements
Apogee altitude
965.367 km
Perigee altitude
898.614 km
Semi-major axis
7,310.128 km
Eccentricity
0.00457
Inclination
66.4566°
RAAN
134.9873°
Arg. of periapsis
182.4549°
True anomaly
Unknown
Mean anomaly
177.6309°
Eccentric anomaly
Unknown
Mean motion
3.47261 °/min
Orbital period
103.67 mins
BSTAR
0.00038119
Loading maneuver chart data...
Loading SW <> Apogee altitude chart data...

THOR ABLESTAR DEB Visibility forecast

Observer location: undefined°, undefined°

Span
Click to sort rows by Start time (UTC) header in descending order
Start Az.
Max El. time (UTC)
Max El. Az.
Max El.
End time (UTC)
End Az.
11 mins2025-07-08 07:15:49.816Z331.288° NNW2025-07-08 07:21:49.816Z64.86° ENE44.91°2025-07-08 07:26:49.816Z149.74° SSE
7 mins2025-07-08 20:40:49.816Z137.945° SSE2025-07-08 20:43:49.816Z102.238° ESE19.759°2025-07-08 20:47:49.816Z60.799° ENE
11 mins2025-07-08 22:24:49.816Z223.766° SW2025-07-08 22:29:49.816Z309.22° NW41.872°2025-07-08 22:35:49.816Z23.914° NE
4 mins2025-07-09 00:15:49.816Z304.919° NW2025-07-09 00:17:49.816Z325.665° NNW13.648°2025-07-09 00:19:49.816Z345.998° N
8 mins2025-07-09 05:43:49.816Z1.37° NNE2025-07-09 05:47:49.816Z52.386° ENE22.474°2025-07-09 05:51:49.816Z97.12° ESE
|